Time,TemperatureF,DewpointF,PressureIn,WindDirection,WindDirectionDegrees,WindSpeedMPH,WindSpeedGustMPH,Humidity,HourlyPrecipIn,Conditions,Clouds,dailyrainin,SoftwareType,DateUTC
2013-05-20 00:08:00,76.3,66.2,29.80,South,171,4.0,4.0,71,0.00,,,0.00,Wunderground v.1.13,2013-05-20 05:08:00,
2013-05-20 00:13:00,76.0,65.9,29.80,SSE,157,4.0,4.0,71,0.00,,,0.00,Wunderground v.1.13,2013-05-20 05:13:00,
2013-05-20 00:23:00,75.7,65.6,29.81,South,183,2.0,2.0,71,0.00,,,0.00,Wunderground v.1.13,2013-05-20 05:23:00,
2013-05-20 00:28:00,75.5,65.8,29.81,South,173,1.0,1.0,72,0.00,,,0.00,Wunderground v.1.13,2013-05-20 05:28:00,
2013-05-20 00:38:00,75.6,65.9,29.81,South,176,1.0,1.0,72,0.00,,,0.00,Wunderground v.1.13,2013-05-20 05:38:00,
2013-05-20 00:43:00,75.6,65.9,29.80,South,182,2.0,6.0,72,0.00,,,0.00,Wunderground v.1.13,2013-05-20 05:43:00,
2013-05-20 00:53:00,75.4,65.7,29.80,South,189,2.0,2.0,72,0.00,,,0.00,Wunderground v.1.13,2013-05-20 05:53:00,
2013-05-20 01:03:00,75.3,65.6,29.79,SSE,153,3.0,5.0,72,0.00,,,0.00,Wunderground v.1.13,2013-05-20 06:03:00,
2013-05-20 01:08:00,75.3,65.6,29.80,SSE,161,3.0,3.0,72,0.00,,,0.00,Wunderground v.1.13,2013-05-20 06:08:00,
2013-05-20 01:18:00,75.6,65.9,29.80,SSE,155,1.0,6.0,72,0.00,,,0.00,Wunderground v.1.13,2013-05-20 06:18:00,
2013-05-20 01:28:00,75.9,66.2,29.80,SSE,161,3.0,4.0,72,0.00,,,0.00,Wunderground v.1.13,2013-05-20 06:28:00,
2013-05-20 01:33:00,75.9,66.2,29.80,SSE,162,3.0,3.0,72,0.00,,,0.00,Wunderground v.1.13,2013-05-20 06:33:00,
2013-05-20 01:43:00,75.8,66.1,29.79,SSE,149,3.0,5.0,72,0.00,,,0.00,Wunderground v.1.13,2013-05-20 06:43:00,
2013-05-20 01:53:00,75.5,65.8,29.78,SE,140,4.0,10.0,72,0.00,,,0.00,Wunderground v.1.13,2013-05-20 06:53:00,
2013-05-20 01:58:00,75.2,65.6,29.79,SSE,153,3.0,6.0,72,0.00,,,0.00,Wunderground v.1.13,2013-05-20 06:58:00,
2013-05-20 02:08:00,75.4,65.7,29.79,SSE,163,4.0,5.0,72,0.00,,,0.00,Wunderground v.1.13,2013-05-20 07:08:00,
2013-05-20 02:18:00,75.1,65.5,29.79,SSE,152,1.0,5.0,72,0.00,,,0.00,Wunderground v.1.13,2013-05-20 07:18:00,
2013-05-20 02:28:00,74.6,65.4,29.79,SSE,168,2.0,2.0,73,0.00,,,0.00,Wunderground v.1.13,2013-05-20 07:28:00,
2013-05-20 02:33:00,74.5,65.3,29.79,SSE,168,3.0,3.0,73,0.00,,,0.00,Wunderground v.1.13,2013-05-20 07:33:00,
2013-05-20 02:43:00,74.1,64.9,29.80,South,175,3.0,3.0,73,0.00,,,0.00,Wunderground v.1.13,2013-05-20 07:43:00,
2013-05-20 02:48:00,73.9,64.7,29.79,South,172,3.0,8.0,73,0.00,,,0.00,Wunderground v.1.13,2013-05-20 07:48:00,
2013-05-20 02:53:00,73.9,64.7,29.79,SSE,152,3.0,9.0,73,0.00,,,0.00,Wunderground v.1.13,2013-05-20 07:53:00,
2013-05-20 03:03:00,73.5,64.3,29.79,SSE,164,4.0,4.0,73,0.00,,,0.00,Wunderground v.1.13,2013-05-20 08:03:00,
2013-05-20 03:08:00,73.5,64.3,29.79,South,173,4.0,8.0,73,0.00,,,0.00,Wunderground v.1.13,2013-05-20 08:08:00,
2013-05-20 03:18:00,73.4,64.2,29.78,SSE,166,6.0,6.0,73,0.00,,,0.00,Wunderground v.1.13,2013-05-20 08:18:00,
2013-05-20 03:28:00,73.4,64.2,29.79,SSE,156,7.0,7.0,73,0.00,,,0.00,Wunderground v.1.13,2013-05-20 08:28:00,
2013-05-20 03:33:00,73.1,63.5,29.79,SSE,162,6.0,6.0,72,0.00,,,0.00,Wunderground v.1.13,2013-05-20 08:33:00,
2013-05-20 03:43:00,73.0,63.4,29.79,SSE,168,5.0,5.0,72,0.00,,,0.00,Wunderground v.1.13,2013-05-20 08:43:00,
2013-05-20 03:53:00,72.9,63.3,29.79,SSE,167,5.0,5.0,72,0.00,,,0.00,Wunderground v.1.13,2013-05-20 08:53:00,
2013-05-20 03:58:00,72.9,63.3,29.79,SSE,155,6.0,7.0,72,0.00,,,0.00,Wunderground v.1.13,2013-05-20 08:58:00,
2013-05-20 04:08:00,72.6,63.1,29.79,SSE,155,4.0,4.0,72,0.00,,,0.00,Wunderground v.1.13,2013-05-20 09:08:00,
2013-05-20 04:18:00,72.8,63.2,29.79,South,176,4.0,4.0,72,0.00,,,0.00,Wunderground v.1.13,2013-05-20 09:18:00,
2013-05-20 04:23:00,72.6,63.1,29.79,South,176,3.0,3.0,72,0.00,,,0.00,Wunderground v.1.13,2013-05-20 09:23:00,
2013-05-20 04:33:00,71.9,62.0,29.80,South,180,0.0,0.0,71,0.00,,,0.00,Wunderground v.1.13,2013-05-20 09:33:00,
2013-05-20 04:43:00,71.9,61.6,29.80,South,170,0.0,0.0,70,0.00,,,0.00,Wunderground v.1.13,2013-05-20 09:43:00,
2013-05-20 04:53:00,72.1,61.8,29.80,South,178,3.0,4.0,70,0.00,,,0.00,Wunderground v.1.13,2013-05-20 09:53:00,
2013-05-20 04:58:00,72.1,61.8,29.80,SSE,165,6.0,6.0,70,0.00,,,0.00,Wunderground v.1.13,2013-05-20 09:58:00,
2013-05-20 05:08:00,71.9,61.6,29.82,SSW,213,3.0,3.0,70,0.00,,,0.00,Wunderground v.1.13,2013-05-20 10:08:00,
2013-05-20 05:13:00,72.1,61.4,29.82,SW,215,0.0,0.0,69,0.00,,,0.00,Wunderground v.1.13,2013-05-20 10:13:00,
2013-05-20 05:18:00,72.2,61.9,29.83,SSW,213,0.0,0.0,70,0.00,,,0.00,Wunderground v.1.13,2013-05-20 10:18:00,
2013-05-20 05:23:00,72.4,62.1,29.84,SW,223,0.0,0.0,70,0.00,,,0.00,Wunderground v.1.13,2013-05-20 10:23:00,
2013-05-20 05:33:00,72.8,62.4,29.84,SSW,202,1.0,1.0,70,0.00,,,0.00,Wunderground v.1.13,2013-05-20 10:33:00,
2013-05-20 05:38:00,72.9,62.5,29.84,SSW,201,1.0,1.0,70,0.00,,,0.00,Wunderground v.1.13,2013-05-20 10:38:00,
2013-05-20 05:48:00,73.1,62.7,29.84,SSW,192,0.0,0.0,70,0.00,,,0.00,Wunderground v.1.13,2013-05-20 10:48:00,
2013-05-20 05:53:00,73.1,63.1,29.84,SSW,194,0.0,0.0,71,0.00,,,0.00,Wunderground v.1.13,2013-05-20 10:53:00,
2013-05-20 05:58:00,73.2,63.2,29.84,SSW,194,0.0,0.0,71,0.00,,,0.00,Wunderground v.1.13,2013-05-20 10:58:00,
2013-05-20 06:08:00,73.2,63.2,29.84,SSW,212,0.0,0.0,71,0.00,,,0.00,Wunderground v.1.13,2013-05-20 11:08:00,
2013-05-20 06:18:00,73.2,62.8,29.84,SW,215,0.0,0.0,70,0.00,,,0.00,Wunderground v.1.13,2013-05-20 11:18:00,
2013-05-20 06:23:00,73.3,63.3,29.85,SSW,210,1.0,1.0,71,0.00,,,0.00,Wunderground v.1.13,2013-05-20 11:23:00,
2013-05-20 06:33:00,73.4,63.4,29.85,SSW,213,0.0,0.0,71,0.00,,,0.00,Wunderground v.1.13,2013-05-20 11:33:00,
2013-05-20 06:38:00,73.4,63.4,29.84,SSW,194,1.0,4.0,71,0.00,,,0.00,Wunderground v.1.13,2013-05-20 11:38:00,
2013-05-20 06:48:00,73.4,63.4,29.84,SW,222,1.0,1.0,71,0.00,,,0.00,Wunderground v.1.13,2013-05-20 11:48:00,
2013-05-20 06:53:00,73.3,63.3,29.85,SW,222,0.0,0.0,71,0.00,,,0.00,Wunderground v.1.13,2013-05-20 11:53:00,
2013-05-20 07:03:00,73.2,63.2,29.85,SSW,206,0.0,0.0,71,0.00,,,0.00,Wunderground v.1.13,2013-05-20 12:03:00,
2013-05-20 07:08:00,73.2,62.8,29.84,SSW,200,0.0,0.0,70,0.00,,,0.00,Wunderground v.1.13,2013-05-20 12:08:00,
2013-05-20 07:13:00,73.1,63.1,29.84,SSW,192,0.0,0.0,71,0.00,,,0.00,Wunderground v.1.13,2013-05-20 12:13:00,
2013-05-20 07:23:00,73.3,63.3,29.84,SSE,164,1.0,1.0,71,0.00,,,0.00,Wunderground v.1.13,2013-05-20 12:23:00,
2013-05-20 07:28:00,73.2,63.2,29.84,SSE,163,0.0,0.0,71,0.00,,,0.00,Wunderground v.1.13,2013-05-20 12:28:00,
2013-05-20 07:33:00,73.7,63.7,29.84,SSE,148,2.0,4.0,71,0.00,,,0.00,Wunderground v.1.13,2013-05-20 12:33:00,
2013-05-20 07:43:00,73.9,63.9,29.83,SSE,159,2.0,2.0,71,0.00,,,0.00,Wunderground v.1.13,2013-05-20 12:43:00,
2013-05-20 07:48:00,73.9,63.9,29.84,SSE,158,1.0,1.0,71,0.00,,,0.00,Wunderground v.1.13,2013-05-20 12:48:00,
2013-05-20 07:58:00,73.8,63.8,29.84,South,182,0.0,0.0,71,0.00,,,0.00,Wunderground v.1.13,2013-05-20 12:58:00,
2013-05-20 08:08:00,73.9,63.5,29.84,SSE,159,0.0,0.0,70,0.00,,,0.00,Wunderground v.1.13,2013-05-20 13:08:00,
2013-05-20 08:18:00,74.3,64.3,29.85,South,184,2.0,2.0,71,0.00,,,0.00,Wunderground v.1.13,2013-05-20 13:18:00,
2013-05-20 08:28:00,74.4,64.4,29.86,South,191,0.0,0.0,71,0.00,,,0.00,Wunderground v.1.13,2013-05-20 13:28:00,
2013-05-20 08:33:00,74.4,64.4,29.86,SSW,202,1.0,4.0,71,0.00,,,0.00,Wunderground v.1.13,2013-05-20 13:33:00,
2013-05-20 08:43:00,74.8,64.4,29.87,South,184,0.0,0.0,70,0.00,,,0.00,Wunderground v.1.13,2013-05-20 13:43:00,
2013-05-20 08:48:00,74.9,64.9,29.87,SSW,210,0.0,3.0,71,0.00,,,0.00,Wunderground v.1.13,2013-05-20 13:48:00,
2013-05-20 08:58:00,75.6,65.5,29.87,South,186,1.0,7.0,71,0.00,,,0.00,Wunderground v.1.13,2013-05-20 13:58:00,
2013-05-20 09:03:00,76.1,66.4,29.86,SSW,200,3.0,4.0,72,0.00,,,0.00,Wunderground v.1.13,2013-05-20 14:03:00,
2013-05-20 09:13:00,77.3,67.6,29.86,SSW,194,4.0,4.0,72,0.00,,,0.00,Wunderground v.1.13,2013-05-20 14:13:00,
2013-05-20 09:23:00,77.6,67.9,29.85,South,190,7.0,9.0,72,0.00,,,0.00,Wunderground v.1.13,2013-05-20 14:23:00,
2013-05-20 09:28:00,77.9,68.1,29.85,South,171,7.0,8.0,72,0.00,,,0.00,Wunderground v.1.13,2013-05-20 14:28:00,
2013-05-20 09:38:00,78.7,68.1,29.84,South,190,9.0,10.0,70,0.00,,,0.00,Wunderground v.1.13,2013-05-20 14:38:00,
2013-05-20 09:43:00,78.8,68.6,29.84,SSW,211,10.0,10.0,71,0.00,,,0.00,Wunderground v.1.13,2013-05-20 14:43:00,
2013-05-20 09:48:00,79.2,68.6,29.84,SSW,198,9.0,9.0,70,0.00,,,0.00,Wunderground v.1.13,2013-05-20 14:48:00,
2013-05-20 09:53:00,79.9,69.2,29.84,SSE,161,10.0,10.0,70,0.00,,,0.00,Wunderground v.1.13,2013-05-20 14:53:00,
2013-05-20 10:03:00,79.7,68.6,29.84,South,178,12.0,14.0,69,0.00,,,0.00,Wunderground v.1.13,2013-05-20 15:03:00,
2013-05-20 10:13:00,79.5,68.0,29.84,SW,214,11.0,11.0,68,0.00,,,0.00,Wunderground v.1.13,2013-05-20 15:13:00,
2013-05-20 10:23:00,79.6,68.1,29.84,SSW,212,7.0,7.0,68,0.00,,,0.00,Wunderground v.1.13,2013-05-20 15:23:00,
2013-05-20 10:28:00,79.5,67.6,29.84,South,181,7.0,7.0,67,0.00,,,0.00,Wunderground v.1.13,2013-05-20 15:28:00,
2013-05-20 10:33:00,79.3,67.4,29.84,SSW,195,9.0,9.0,67,0.00,,,0.00,Wunderground v.1.13,2013-05-20 15:33:00,
2013-05-20 10:43:00,79.6,67.7,29.84,SSW,200,9.0,12.0,67,0.00,,,0.00,Wunderground v.1.13,2013-05-20 15:43:00,
2013-05-20 10:48:00,79.6,67.7,29.84,South,186,8.0,8.0,67,0.00,,,0.00,Wunderground v.1.13,2013-05-20 15:48:00,
2013-05-20 10:58:00,79.9,67.5,29.84,South,181,9.0,13.0,66,0.00,,,0.00,Wunderground v.1.13,2013-05-20 15:58:00,
2013-05-20 11:03:00,79.9,67.5,29.84,SW,219,10.0,10.0,66,0.00,,,0.00,Wunderground v.1.13,2013-05-20 16:03:00,
2013-05-20 11:08:00,79.5,67.1,29.84,SSW,199,9.0,10.0,66,0.00,,,0.00,Wunderground v.1.13,2013-05-20 16:08:00,
2013-05-20 11:13:00,79.3,67.0,29.84,SSW,202,8.0,8.0,66,0.00,,,0.00,Wunderground v.1.13,2013-05-20 16:13:00,
2013-05-20 11:23:00,79.7,67.8,29.84,South,183,9.0,9.0,67,0.00,,,0.00,Wunderground v.1.13,2013-05-20 16:23:00,
2013-05-20 11:33:00,79.7,67.8,29.84,South,184,8.0,11.0,67,0.00,,,0.00,Wunderground v.1.13,2013-05-20 16:33:00,
2013-05-20 11:43:00,79.5,68.4,29.84,South,185,8.0,8.0,69,0.00,,,0.00,Wunderground v.1.13,2013-05-20 16:43:00,
2013-05-20 11:53:00,80.1,68.6,29.84,South,172,7.0,8.0,68,0.00,,,0.00,Wunderground v.1.13,2013-05-20 16:53:00,
2013-05-20 12:03:00,80.7,68.3,29.83,South,175,6.0,11.0,66,0.00,,,0.00,Wunderground v.1.13,2013-05-20 17:03:00,
2013-05-20 12:08:00,79.9,68.4,29.84,South,176,8.0,9.0,68,0.00,,,0.00,Wunderground v.1.13,2013-05-20 17:08:00,
2013-05-20 12:18:00,78.7,67.7,29.84,South,173,9.0,9.0,69,0.00,,,0.00,Wunderground v.1.13,2013-05-20 17:18:00,
2013-05-20 12:28:00,79.0,68.0,29.84,South,171,9.0,9.0,69,0.00,,,0.00,Wunderground v.1.13,2013-05-20 17:28:00,
2013-05-20 12:38:00,80.0,68.5,29.84,South,179,7.0,7.0,68,0.00,,,0.00,Wunderground v.1.13,2013-05-20 17:38:00,
2013-05-20 12:48:00,79.6,67.7,29.84,South,180,8.0,16.0,67,0.00,,,0.00,Wunderground v.1.13,2013-05-20 17:48:00,
2013-05-20 12:53:00,79.3,68.2,29.84,South,169,10.0,10.0,69,0.00,,,0.00,Wunderground v.1.13,2013-05-20 17:53:00,
2013-05-20 12:58:00,79.0,68.0,29.84,SSW,195,11.0,11.0,69,0.00,,,0.00,Wunderground v.1.13,2013-05-20 17:58:00,
2013-05-20 13:08:00,78.9,67.9,29.84,South,187,10.0,10.0,69,0.00,,,0.00,Wunderground v.1.13,2013-05-20 18:08:00,
2013-05-20 13:13:00,79.4,68.3,29.84,SSE,167,10.0,10.0,69,0.00,,,0.00,Wunderground v.1.13,2013-05-20 18:13:00,
2013-05-20 13:23:00,79.7,68.6,29.84,SSW,202,9.0,16.0,69,0.00,,,0.00,Wunderground v.1.13,2013-05-20 18:23:00,
2013-05-20 13:28:00,79.3,68.2,29.84,South,174,9.0,9.0,69,0.00,,,0.00,Wunderground v.1.13,2013-05-20 18:28:00,
2013-05-20 13:38:00,79.6,69.0,29.84,SSW,207,7.0,10.0,70,0.00,,,0.00,Wunderground v.1.13,2013-05-20 18:38:00,
2013-05-20 13:43:00,80.2,68.7,29.84,South,176,8.0,10.0,68,0.00,,,0.00,Wunderground v.1.13,2013-05-20 18:43:00,
2013-05-20 13:53:00,79.3,68.2,29.84,SSW,198,6.0,6.0,69,0.00,,,0.00,Wunderground v.1.13,2013-05-20 18:53:00,
2013-05-20 13:58:00,79.1,68.1,29.84,SSW,196,5.0,6.0,69,0.00,,,0.00,Wunderground v.1.13,2013-05-20 18:58:00,
2013-05-20 14:08:00,79.1,68.5,29.84,SW,222,4.0,4.0,70,0.00,,,0.00,Wunderground v.1.13,2013-05-20 19:08:00,
2013-05-20 14:18:00,79.4,68.3,29.84,SSW,196,4.0,7.0,69,0.00,,,0.00,Wunderground v.1.13,2013-05-20 19:18:00,
2013-05-20 14:23:00,79.8,68.7,29.83,SSW,192,3.0,7.0,69,0.00,,,0.00,Wunderground v.1.13,2013-05-20 19:23:00,
2013-05-20 14:33:00,79.8,68.7,29.83,SSW,192,3.0,3.0,69,0.00,,,0.00,Wunderground v.1.13,2013-05-20 19:33:00,
2013-05-20 14:38:00,79.8,68.7,29.83,SSW,211,4.0,4.0,69,0.00,,,0.00,Wunderground v.1.13,2013-05-20 19:38:00,
2013-05-20 14:43:00,79.7,68.6,29.82,SW,215,3.0,3.0,69,0.00,,,0.00,Wunderground v.1.13,2013-05-20 19:43:00,
2013-05-20 14:53:00,79.9,69.2,29.82,South,188,0.0,5.0,70,0.00,,,0.00,Wunderground v.1.13,2013-05-20 19:53:00,
2013-05-20 14:58:00,80.2,68.7,29.82,SSW,204,3.0,3.0,68,0.00,,,0.00,Wunderground v.1.13,2013-05-20 19:58:00,
2013-05-20 15:03:00,80.4,68.9,29.82,South,188,5.0,9.0,68,0.00,,,0.00,Wunderground v.1.13,2013-05-20 20:03:00,
2013-05-20 15:13:00,81.4,68.9,29.81,South,180,6.0,6.0,66,0.00,,,0.00,Wunderground v.1.13,2013-05-20 20:13:00,
2013-05-20 15:23:00,82.8,69.4,29.81,SSW,194,6.0,6.0,64,0.00,,,0.00,Wunderground v.1.13,2013-05-20 20:23:00,
2013-05-20 15:33:00,83.1,69.2,29.80,SW,215,5.0,8.0,63,0.00,,,0.00,Wunderground v.1.13,2013-05-20 20:33:00,
2013-05-20 15:38:00,83.3,69.4,29.80,SSW,202,4.0,4.0,63,0.00,,,0.00,Wunderground v.1.13,2013-05-20 20:38:00,
2013-05-20 15:48:00,84.7,69.8,29.79,SW,223,6.0,6.0,61,0.00,,,0.00,Wunderground v.1.13,2013-05-20 20:48:00,
2013-05-20 15:58:00,84.7,69.8,29.79,SW,220,5.0,9.0,61,0.00,,,0.00,Wunderground v.1.13,2013-05-20 20:58:00,
2013-05-20 16:03:00,85.1,69.7,29.78,SE,133,6.0,6.0,60,0.00,,,0.00,Wunderground v.1.13,2013-05-20 21:03:00,
2013-05-20 16:08:00,85.6,70.6,29.78,South,175,7.0,11.0,61,0.00,,,0.00,Wunderground v.1.13,2013-05-20 21:08:00,
2013-05-20 16:13:00,86.0,69.5,29.78,SSW,194,8.0,8.0,58,0.00,,,0.00,Wunderground v.1.13,2013-05-20 21:13:00,
2013-05-20 16:23:00,85.7,69.7,29.77,SSE,160,6.0,10.0,59,0.00,,,0.00,Wunderground v.1.13,2013-05-20 21:23:00,
2013-05-20 16:28:00,85.9,68.9,29.77,SSE,165,7.0,9.0,57,0.00,,,0.00,Wunderground v.1.13,2013-05-20 21:28:00,
2013-05-20 16:38:00,86.3,69.8,29.77,SSE,159,7.0,7.0,58,0.00,,,0.00,Wunderground v.1.13,2013-05-20 21:38:00,
2013-05-20 16:43:00,86.6,68.0,29.77,SSE,167,6.0,8.0,54,0.00,,,0.00,Wunderground v.1.13,2013-05-20 21:43:00,
2013-05-20 16:53:00,87.1,69.0,29.76,South,172,6.0,10.0,55,0.00,,,0.00,Wunderground v.1.13,2013-05-20 21:53:00,
2013-05-20 16:58:00,87.3,68.6,29.76,SSE,161,8.0,15.0,54,0.00,,,0.00,Wunderground v.1.13,2013-05-20 21:58:00,
2013-05-20 17:09:00,85.4,68.9,29.76,SSE,157,10.0,11.0,58,0.00,,,0.00,Wunderground v.1.13,2013-05-20 22:09:00,
2013-05-20 17:18:00,85.9,69.4,29.75,SSE,160,9.0,11.0,58,0.00,,,0.00,Wunderground v.1.13,2013-05-20 22:18:00,
2013-05-20 17:23:00,85.9,69.9,29.75,SE,142,9.0,13.0,59,0.00,,,0.00,Wunderground v.1.13,2013-05-20 22:23:00,
2013-05-20 17:28:00,85.8,69.8,29.75,SSE,155,9.0,9.0,59,0.00,,,0.00,Wunderground v.1.13,2013-05-20 22:28:00,
2013-05-20 17:33:00,85.4,69.9,29.74,SE,146,10.0,10.0,60,0.00,,,0.00,Wunderground v.1.13,2013-05-20 22:33:00,
2013-05-20 17:38:00,85.4,69.9,29.75,SSE,149,10.0,13.0,60,0.00,,,0.00,Wunderground v.1.13,2013-05-20 22:38:00,
2013-05-20 17:48:00,85.2,69.7,29.74,SSE,155,11.0,16.0,60,0.00,,,0.00,Wunderground v.1.13,2013-05-20 22:48:00,
2013-05-20 17:58:00,84.2,70.2,29.73,SSE,156,9.0,9.0,63,0.00,,,0.00,Wunderground v.1.13,2013-05-20 22:58:00,
2013-05-20 18:03:00,84.4,70.0,29.74,South,173,6.0,9.0,62,0.00,,,0.00,Wunderground v.1.13,2013-05-20 23:03:00,
2013-05-20 18:13:00,84.8,69.4,29.73,South,170,9.0,10.0,60,0.00,,,0.00,Wunderground v.1.13,2013-05-20 23:13:00,
2013-05-20 18:23:00,84.2,68.8,29.73,South,170,10.0,10.0,60,0.00,,,0.00,Wunderground v.1.13,2013-05-20 23:23:00,
2013-05-20 18:33:00,83.7,68.3,29.72,South,169,9.0,13.0,60,0.00,,,0.00,Wunderground v.1.13,2013-05-20 23:33:00,
2013-05-20 18:43:00,83.5,68.6,29.72,South,173,9.0,9.0,61,0.00,,,0.00,Wunderground v.1.13,2013-05-20 23:43:00,
2013-05-20 18:48:00,83.5,68.6,29.72,SSE,163,7.0,7.0,61,0.00,,,0.00,Wunderground v.1.13,2013-05-20 23:48:00,
2013-05-20 18:58:00,83.0,68.6,29.72,SE,128,8.0,8.0,62,0.00,,,0.00,Wunderground v.1.13,2013-05-20 23:58:00,
2013-05-20 19:08:00,82.6,68.7,29.72,SSE,153,4.0,6.0,63,0.00,,,0.00,Wunderground v.1.13,2013-05-21 00:08:00,
2013-05-20 19:18:00,82.1,68.3,29.72,SSE,155,5.0,7.0,63,0.00,,,0.00,Wunderground v.1.13,2013-05-21 00:18:00,
2013-05-20 19:23:00,82.0,68.2,29.73,SSE,149,6.0,6.0,63,0.00,,,0.00,Wunderground v.1.13,2013-05-21 00:23:00,
2013-05-20 19:28:00,81.6,67.8,29.72,SE,146,6.0,6.0,63,0.00,,,0.00,Wunderground v.1.13,2013-05-21 00:28:00,
2013-05-20 19:38:00,81.3,67.5,29.73,SE,140,5.0,8.0,63,0.00,,,0.00,Wunderground v.1.13,2013-05-21 00:38:00,
2013-05-20 19:43:00,81.3,67.5,29.73,SE,133,6.0,9.0,63,0.00,,,0.00,Wunderground v.1.13,2013-05-21 00:43:00,
2013-05-20 19:53:00,81.2,67.4,29.72,SSE,157,8.0,12.0,63,0.00,,,0.00,Wunderground v.1.13,2013-05-21 00:53:00,
2013-05-20 19:58:00,81.3,67.0,29.73,SSE,155,8.0,8.0,62,0.00,,,0.00,Wunderground v.1.13,2013-05-21 00:58:00,
2013-05-20 20:08:00,81.0,67.2,29.73,SE,132,7.0,7.0,63,0.00,,,0.00,Wunderground v.1.13,2013-05-21 01:08:00,
2013-05-20 20:18:00,80.6,66.8,29.73,ESE,117,3.0,5.0,63,0.00,,,0.00,Wunderground v.1.13,2013-05-21 01:18:00,
2013-05-20 20:28:00,80.1,66.8,29.73,SE,130,6.0,6.0,64,0.00,,,0.00,Wunderground v.1.13,2013-05-21 01:28:00,
2013-05-20 20:33:00,79.9,67.1,29.73,SE,144,7.0,8.0,65,0.00,,,0.00,Wunderground v.1.13,2013-05-21 01:33:00,
2013-05-20 20:38:00,80.0,67.6,29.73,SE,138,7.0,7.0,66,0.00,,,0.00,Wunderground v.1.13,2013-05-21 01:38:00,
2013-05-20 20:43:00,79.8,67.4,29.72,SE,126,7.0,10.0,66,0.00,,,0.00,Wunderground v.1.13,2013-05-21 01:43:00,
2013-05-20 20:53:00,80.0,67.6,29.72,SE,143,10.0,12.0,66,0.00,,,0.00,Wunderground v.1.13,2013-05-21 01:53:00,
2013-05-20 21:03:00,79.8,67.9,29.72,SE,140,11.0,11.0,67,0.00,,,0.00,Wunderground v.1.13,2013-05-21 02:03:00,
2013-05-20 21:08:00,79.7,67.8,29.72,SE,144,11.0,11.0,67,0.00,,,0.00,Wunderground v.1.13,2013-05-21 02:08:00,
2013-05-20 21:18:00,79.6,67.7,29.73,SSE,158,10.0,15.0,67,0.00,,,0.00,Wunderground v.1.13,2013-05-21 02:18:00,
2013-05-20 21:23:00,79.6,67.7,29.72,SSE,153,10.0,16.0,67,0.00,,,0.00,Wunderground v.1.13,2013-05-21 02:23:00,
2013-05-20 21:33:00,79.6,67.7,29.72,ESE,123,10.0,12.0,67,0.00,,,0.00,Wunderground v.1.13,2013-05-21 02:33:00,
2013-05-20 21:43:00,79.6,67.7,29.72,SE,133,11.0,11.0,67,0.00,,,0.00,Wunderground v.1.13,2013-05-21 02:43:00,
2013-05-20 21:48:00,79.3,67.8,29.73,SSE,156,11.0,11.0,68,0.00,,,0.00,Wunderground v.1.13,2013-05-21 02:48:00,
2013-05-20 21:53:00,79.2,67.7,29.73,SSE,163,11.0,12.0,68,0.00,,,0.00,Wunderground v.1.13,2013-05-21 02:53:00,
2013-05-20 22:03:00,79.2,67.7,29.73,SE,145,11.0,11.0,68,0.00,,,0.00,Wunderground v.1.13,2013-05-21 03:03:00,
2013-05-20 22:08:00,79.2,67.7,29.74,SSE,164,11.0,12.0,68,0.00,,,0.00,Wunderground v.1.13,2013-05-21 03:08:00,
2013-05-20 22:13:00,78.8,67.3,29.74,SSE,150,10.0,12.0,68,0.00,,,0.00,Wunderground v.1.13,2013-05-21 03:13:00,
2013-05-20 22:23:00,79.1,67.6,29.75,South,173,11.0,11.0,68,0.00,,,0.00,Wunderground v.1.13,2013-05-21 03:23:00,
2013-05-20 22:33:00,78.8,67.3,29.76,SSE,156,10.0,10.0,68,0.00,,,0.00,Wunderground v.1.13,2013-05-21 03:33:00,
2013-05-20 22:38:00,78.9,67.4,29.75,SSE,159,9.0,13.0,68,0.00,,,0.00,Wunderground v.1.13,2013-05-21 03:38:00,
2013-05-20 22:48:00,78.9,67.4,29.76,SSE,167,10.0,10.0,68,0.00,,,0.00,Wunderground v.1.13,2013-05-21 03:48:00,
2013-05-20 22:53:00,78.7,67.7,29.77,SSE,157,9.0,9.0,69,0.00,,,0.00,Wunderground v.1.13,2013-05-21 03:53:00,
2013-05-20 23:03:00,78.7,67.7,29.78,SSE,166,7.0,7.0,69,0.00,,,0.00,Wunderground v.1.13,2013-05-21 04:03:00,
2013-05-20 23:08:00,78.7,67.7,29.79,SSE,167,7.0,10.0,69,0.00,,,0.00,Wunderground v.1.13,2013-05-21 04:08:00,
2013-05-20 23:13:00,78.6,67.6,29.79,South,171,7.0,7.0,69,0.00,,,0.00,Wunderground v.1.13,2013-05-21 04:13:00,
2013-05-20 23:18:00,78.2,67.6,29.80,SSE,163,5.0,5.0,70,0.00,,,0.00,Wunderground v.1.13,2013-05-21 04:18:00,
2013-05-20 23:23:00,78.1,67.5,29.80,South,172,3.0,3.0,70,0.00,,,0.00,Wunderground v.1.13,2013-05-21 04:23:00,
2013-05-20 23:28:00,77.9,67.3,29.80,South,182,5.0,8.0,70,0.00,,,0.00,Wunderground v.1.13,2013-05-21 04:28:00,
2013-05-20 23:38:00,77.7,67.5,29.80,South,170,2.0,2.0,71,0.00,,,0.00,Wunderground v.1.13,2013-05-21 04:38:00,
2013-05-20 23:43:00,77.7,67.5,29.80,SSE,163,2.0,2.0,71,0.00,,,0.00,Wunderground v.1.13,2013-05-21 04:43:00,
2013-05-20 23:53:00,78.0,67.4,29.79,SSE,165,5.0,9.0,70,0.00,,,0.00,Wunderground v.1.13,2013-05-21 04:53:00,
2013-05-20 23:58:00,78.0,67.4,29.78,SSE,155,6.0,6.0,70,0.00,,,0.00,Wunderground v.1.13,2013-05-21 04:58:00,